Vorticity
4 13 9 2 4 -4 10 10 3 2 3 7 2 7 4 5 10 3 1 3 3 2 2 2 3 3 4 6 6 8 8 7 6 6 3 2 1 3 4 4 7 7 6 3 2 5 6 6 4
-1 14 14 6 -1 21 -38 8 -4 4 6 -3 7 5 7 4 1 30 5 6 2 4 4 3 3 3 3 3 5 6 8 8 9 6 4 2 1 0 1 2 3 5 6 6 4 2 3 5 6
5 11 -14 -43 99 19 -13 10 10 1 4 0 4 6 3 7 4 2 3 3 4 4 5 5 6 5 4 4 3 3 6 8 7 7 6 3 2 1 1 1 1 2 3 4 4 5 5 3 3
-4 12 -2 18 29 -12 -3 -2 -6 2 4 3 3 4 2 -0 6 4 4 3 2 1 3 4 3 4 3 4 4 3 2 4 7 7 7 6 4 3 1 1 1 2 2 2 2 2 3 4 5
16 7 -22 -24 8 11 7 10 -22 37 14 -4 -2 11 4 -0 -2 -1 2 2 2 2 2 4 1 3 4 5 4 3 4 3 2 6 8 7 6 6 6 3 2 1 1 1 2 2 1 1 2
-9 24 18 6 4 6 -0 3 8 33 4 31 48 5 9 0 1 1 0 3 4 1 -2 7 5 2 7 8 7 8 4 3 4 4 3 4 9 8 6 6 6 5 3 2 2 2 2 1 1
9 7 5 10 7 6 4 -3 -1 -10 2 78 29 9 -1 11 2 0 -1 3 3 3 2 6 4 6 1 3 4 4 4 3 2 1 1 2 3 2 4 8 9 6 6 5 5 3 2 2 2
7 7 6 8 5 4 3 7 -2 -1 12 6 15 11 11 2 1 -2 2 3 2 2 5 2 5 3 5 3 5 6 4 3 5 8 10 11 8 6 4 3 2 3 8 10 7 5 5 3 2
6 8 2 5 6 3 3 1 4 14 15 10 13 6 13 6 -1 3 5 4 2 1 5 6 6 3 7 8 7 7 1 1 2 4 2 5 5 6 5 7 7 5 3 2 3 8 10 7 4
-3 8 8 5 3 4 4 5 12 24 7 7 4 -3 2 9 3 3 3 5 7 8 6 9 9 7 3 3 2 4 7 8 10 9 8 7 9 8 8 5 3 4 6 6 4 3 3 3 7
2 7 4 6 3 2 7 7 16 5 7 5 6 9 11 1 7 10 11 10 10 9 6 4 5 6 7 6 6 6 5 2 3 3 2 2 3 3 4 6 7 8 9 8 8 3 7 5 4
10 6 3 0 6 7 6 8 12 6 7 7 6 7 7 6 3 4 4 4 3 3 3 4 5 6 6 6 5 5 6 7 8 8 9 9 8 9 7 7 6 5 4 4 5 9 10 4 2
1 6 8 5 5 9 13 16 10 8 7 6 6 6 6 4 4 4 5 5 5 6 6 6 7 6 7 7 8 9 9 8 7 7 7 7 7 7 7 8 8 6 6 6 5 4 6 4 8
8 1 3 4 4 7 16 9 6 8 7 6 4 4 3 4 5 5 5 7 7 7 7 7 6 7 8 9 9 9 10 9 9 7 7 8 8 6 6 6 5 6 6 10 9 6 4 4 5
10 12 9 6 15 18 13 6 6 4 5 5 5 5 6 6 6 6 6 9 8 7 7 8 8 8 8 9 9 10 10 9 11 12 14 10 7 10 8 10 13 12 11 15 13 11 9 9 5
5 4 8 16 6 5 4 4 4 3 4 5 6 7 6 7 7 9 11 9 9 9 8 8 11 15 13 9 8 8 8 8 8 8 6 2 10 6 6 7 9 17 12 16 17 14 11 8 8
7 12 11 2 3 5 5 4 3 6 5 5 5 7 6 6 4 4 5 5 6 7 7 7 7 7 9 12 10 10 10 8 9 8 5 3 -0 8 9 4 6 6 16 18 20 25 16 11 8
12 3 3 4 5 4 4 4 6 5 4 4 4 4 4 4 4 3 3 4 6 6 5 6 6 6 6 7 9 11 10 12 9 10 6 7 1 4 2 5 5 5 10 13 11 22 24 19 14
7 1 3 5 1 4 4 3 2 3 2 3 4 6 4 5 6 6 5 5 6 7 6 6 6 7 8 6 6 7 9 10 10 9 7 6 9 5 7 9 7 5 8 9 11 5 14 23 20
2 4 4 3 4 4 5 5 3 2 4 4 4 4 4 7 7 7 6 6 7 7 5 7 6 6 7 7 7 6 7 7 10 9 7 8 5 7 9 9 9 5 5 8 10 15 14 13 12
4 3 3 3 5 5 4 4 7 5 6 6 5 5 6 5 6 6 4 6 6 6 5 5 5 5 4 5 5 5 6 8 8 8 8 7 6 8 8 6 11 7 4 5 5 5 7 8 13
2 3 5 4 4 3 2 2 3 8 4 3 3 3 3 5 6 3 4 5 7 5 5 7 7 7 7 7 7 6 5 6 7 8 9 10 8 7 7 5 6 5 5 4 4 4 3 7 4
-0 2 3 3 5 2 4 4 0 1 5 3 4 4 4 4 5 6 4 6 6 7 4 5 6 9 8 7 7 7 8 8 8 7 8 9 11 8 9 5 4 4 4 4 5 5 5 8 2
4 4 4 3 4 3 2 7 4 8 2 3 3 3 4 6 7 6 7 8 7 7 8 7 6 9 9 9 9 9 8 7 8 9 9 10 10 11 12 9 6 4 2 3 4 4 4 4 3
4 4 4 4 4 4 4 5 6 -5 5 4 4 3 3 6 5 6 6 9 11 7 9 9 8 7 9 8 8 10 10 10 10 11 10 9 9 10 11 13 13 9 7 4 4 3 1 1 3
4 4 3 4 4 3 7 3 -4 4 4 3 4 4 5 5 5 5 6 6 6 11 11 12 12 8 7 6 8 8 9 9 8 9 11 13 13 13 12 11 12 11 12 10 6 6 4 3 4
5 7 6 5 5 4 3 6 3 5 5 4 4 4 2 5 2 4 3 4 4 3 2 8 11 11 10 8 7 9 11 8 8 7 8 9 8 9 10 11 14 14 13 12 10 11 11 6 7
5 8 8 8 7 6 6 4 1 2 4 6 3 4 5 5 2 3 2 1 1 1 -1 1 12 9 12 11 9 8 12 10 10 9 8 9 8 7 8 8 9 10 12 14 15 15 14 13 14
3 4 5 3 5 5 5 5 4 4 6 4 5 6 5 6 7 6 7 4 5 3 -7 11 1 3 10 11 11 10 12 11 10 9 9 9 9 8 8 8 8 7 8 9 11 13 14 14 12
1 2 3 6 7 4 2 3 6 7 7 8 6 6 5 6 6 4 4 7 8 3 -4 1 6 9 11 13 13 13 12 10 10 9 9 9 9 9 8 9 9 9 9 10 10 10 9 11 13
Height
5852 5858 5860 5864 5870 5867 5869 5870 5875 5878 5880 5881 5881 5880 5879 5880 5882 5884 5881 5879 5884 5884 5884 5884 5883 5883 5882 5880 5879 5877 5875 5875 5875 5874 5874 5873 5873 5872 5871 5870 5869 5868 5867 5867 5865 5864 5863 5861 5861
5858 5861 5864 5861 5863 5864 5867 5874 5880 5881 5882 5882 5882 5881 5883 5884 5884 5884 5885 5885 5887 5886 5887 5886 5885 5885 5884 5883 5881 5880 5879 5878 5876 5875 5875 5874 5873 5873 5872 5871 5870 5870 5869 5868 5867 5866 5865 5863 5862
5856 5856 5855 5854 5847 5860 5876 5878 5882 5882 5883 5883 5885 5885 5885 5885 5887 5888 5887 5888 5889 5887 5889 5888 5887 5887 5886 5885 5883 5881 5880 5879 5878 5877 5876 5874 5873 5873 5873 5872 5871 5870 5869 5869 5868 5867 5866 5865 5864
5862 5864 5867 5864 5856 5868 5877 5879 5883 5883 5881 5883 5886 5887 5885 5886 5889 5890 5890 5890 5890 5890 5890 5890 5889 5888 5887 5886 5885 5883 5882 5881 5880 5879 5878 5877 5875 5873 5873 5872 5871 5870 5870 5869 5868 5868 5867 5866 5865
5862 5861 5867 5873 5871 5875 5881 5881 5884 5883 5883 5884 5886 5886 5886 5887 5890 5891 5892 5892 5892 5892 5892 5891 5890 5890 5889 5888 5886 5885 5883 5882 5881 5880 5879 5877 5877 5876 5875 5874 5871 5870 5869 5868 5868 5868 5867 5866 5865
5864 5865 5871 5874 5875 5881 5883 5883 5882 5884 5879 5877 5881 5886 5888 5888 5891 5892 5893 5893 5892 5892 5891 5891 5891 5890 5889 5889 5888 5887 5886 5884 5882 5881 5879 5877 5876 5875 5874 5873 5873 5872 5870 5868 5867 5866 5866 5865 5864
5874 5873 5873 5876 5880 5884 5883 5882 5882 5881 5874 5866 5874 5884 5887 5890 5891 5893 5893 5894 5893 5893 5892 5892 5891 5890 5889 5888 5887 5886 5885 5884 5883 5881 5880 5878 5877 5875 5873 5871 5870 5871 5870 5869 5867 5865 5865 5864 5863
5876 5877 5878 5880 5882 5883 5882 5883 5885 5882 5877 5870 5878 5884 5889 5890 5892 5893 5894 5894 5893 5892 5891 5891 5889 5888 5887 5886 5885 5884 5883 5882 5881 5880 5879 5877 5875 5874 5872 5870 5869 5868 5867 5866 5866 5865 5863 5862 5861
5876 5877 5876 5878 5881 5882 5883 5885 5887 5884 5885 5883 5884 5888 5890 5891 5893 5894 5893 5893 5892 5891 5890 5889 5888 5886 5884 5883 5882 5881 5880 5879 5878 5876 5875 5875 5874 5873 5870 5869 5867 5865 5864 5864 5864 5862 5861 5861 5859
5865 5875 5875 5878 5880 5883 5885 5887 5888 5889 5886 5886 5887 5889 5890 5892 5892 5892 5892 5892 5890 5889 5889 5887 5886 5884 5883 5881 5880 5878 5877 5875 5874 5872 5871 5871 5870 5869 5868 5866 5865 5864 5862 5860 5859 5858 5857 5857 5856
5873 5878 5879 5881 5885 5886 5888 5889 5889 5888 5889 5888 5889 5890 5891 5892 5893 5893 5892 5891 5890 5889 5888 5887 5884 5882 5881 5879 5878 5877 5874 5873 5871 5869 5868 5867 5866 5864 5863 5863 5861 5860 5858 5857 5856 5854 5853 5852 5851
5881 5881 5882 5884 5888 5890 5891 5891 5890 5889 5890 5890 5890 5892 5892 5893 5893 5892 5891 5890 5889 5888 5886 5884 5883 5880 5878 5876 5873 5873 5871 5869 5867 5865 5864 5863 5861 5861 5859 5858 5857 5856 5854 5852 5851 5850 5848 5847 5846
5880 5881 5884 5887 5889 5891 5892 5890 5891 5891 5890 5891 5892 5892 5893 5893 5892 5891 5890 5889 5888 5886 5883 5881 5879 5877 5875 5873 5870 5868 5866 5864 5862 5860 5858 5857 5855 5854 5852 5851 5850 5847 5847 5846 5844 5843 5843 5842 5842
5882 5883 5885 5887 5890 5891 5890 5891 5892 5891 5891 5892 5892 5893 5892 5891 5890 5890 5889 5888 5887 5884 5882 5880 5876 5874 5871 5870 5865 5863 5861 5859 5858 5855 5853 5851 5849 5847 5846 5844 5842 5839 5838 5837 5836 5835 5835 5835 5835
5885 5886 5887 5889 5890 5890 5892 5894 5893 5893 5893 5894 5894 5893 5892 5891 5890 5890 5886 5886 5885 5881 5879 5878 5874 5871 5869 5866 5862 5859 5857 5855 5853 5851 5849 5848 5846 5843 5841 5838 5834 5832 5830 5828 5826 5826 5824 5826 5826
5884 5885 5887 5889 5891 5893 5893 5894 5893 5894 5894 5895 5894 5893 5891 5890 5888 5886 5887 5883 5881 5880 5877 5875 5872 5869 5866 5863 5859 5857 5854 5851 5849 5847 5845 5843 5841 5838 5835 5832 5829 5825 5821 5818 5816 5816 5815 5815 5815
5885 5886 5888 5889 5891 5893 5893 5893 5893 5894 5894 5895 5894 5892 5890 5888 5886 5886 5883 5881 5879 5878 5875 5872 5868 5865 5863 5860 5857 5854 5851 5849 5846 5843 5841 5838 5836 5832 5829 5825 5821 5817 5814 5811 5807 5805 5805 5805 5805
5886 5886 5888 5890 5892 5892 5893 5894 5894 5894 5894 5893 5891 5889 5887 5886 5885 5883 5882 5881 5879 5876 5872 5868 5865 5862 5858 5855 5852 5850 5846 5844 5841 5839 5836 5833 5831 5827 5824 5819 5816 5812 5808 5805 5802 5799 5797 5797 5797
5885 5886 5887 5888 5889 5890 5891 5892 5892 5891 5891 5890 5888 5887 5885 5884 5883 5882 5880 5878 5875 5871 5868 5865 5862 5858 5855 5851 5847 5844 5842 5839 5836 5833 5830 5828 5824 5821 5818 5815 5812 5808 5805 5801 5797 5794 5792 5790 5789
5884 5883 5886 5887 5888 5889 5889 5890 5890 5890 5889 5887 5886 5884 5884 5882 5880 5878 5875 5872 5869 5866 5863 5860 5857 5853 5850 5846 5842 5839 5835 5832 5829 5826 5824 5820 5817 5814 5812 5809 5806 5803 5801 5797 5794 5791 5787 5785 5783
5886 5885 5885 5886 5886 5886 5887 5888 5888 5888 5887 5885 5883 5882 5880 5877 5875 5872 5869 5866 5863 5860 5857 5854 5851 5847 5844 5840 5836 5832 5828 5826 5822 5819 5816 5813 5811 5808 5805 5802 5800 5797 5794 5791 5789 5786 5784 5781 5778
5885 5887 5887 5885 5885 5885 5885 5884 5885 5884 5883 5881 5879 5876 5874 5872 5870 5869 5866 5863 5860 5857 5853 5850 5847 5843 5839 5834 5830 5825 5821 5818 5814 5811 5808 5805 5803 5801 5798 5795 5793 5790 5788 5785 5783 5780 5778 5776 5774
5886 5884 5886 5886 5884 5884 5883 5881 5878 5880 5879 5878 5877 5874 5872 5870 5867 5865 5862 5860 5857 5853 5849 5845 5841 5837 5832 5827 5823 5819 5815 5810 5806 5802 5799 5796 5794 5791 5789 5787 5785 5782 5780 5778 5776 5774 5771 5769 5768
5881 5882 5882 5883 5882 5881 5879 5880 5874 5876 5876 5875 5873 5871 5868 5866 5863 5861 5858 5854 5853 5847 5843 5839 5834 5831 5827 5822 5817 5812 5808 5802 5798 5794 5791 5787 5784 5781 5780 5778 5775 5773 5772 5769 5766 5764 5763 5761 5759
5878 5878 5879 5880 5879 5879 5878 5878 5877 5873 5870 5866 5868 5868 5865 5862 5859 5856 5853 5849 5845 5843 5838 5833 5829 5824 5819 5814 5809 5805 5800 5795 5790 5785 5781 5777 5774 5771 5768 5766 5764 5762 5760 5758 5756 5755 5753 5752 5751
5874 5875 5876 5875 5875 5875 5873 5874 5871 5871 5870 5867 5862 5859 5860 5857 5855 5851 5847 5843 5840 5835 5830 5826 5821 5815 5810 5805 5799 5794 5789 5784 5780 5776 5771 5768 5764 5761 5757 5754 5751 5749 5747 5746 5745 5743 5741 5739 5738
5871 5872 5873 5872 5872 5871 5870 5867 5867 5865 5866 5864 5860 5855 5855 5851 5849 5845 5841 5837 5832 5829 5824 5820 5812 5805 5801 5795 5789 5783 5778 5773 5768 5764 5760 5755 5751 5748 5745 5742 5739 5736 5733 5730 5728 5726 5725 5723 5722
5867 5869 5869 5869 5868 5867 5868 5866 5859 5860 5861 5859 5856 5853 5848 5847 5843 5839 5834 5830 5826 5820 5814 5810 5805 5797 5791 5784 5779 5773 5768 5762 5757 5753 5748 5744 5739 5735 5731 5727 5723 5720 5717 5715 5713 5711 5708 5705 5704
5862 5863 5863 5863 5863 5862 5862 5862 5857 5854 5855 5853 5849 5848 5842 5839 5835 5831 5827 5821 5818 5812 5805 5800 5795 5787 5781 5774 5767 5762 5757 5751 5746 5740 5736 5732 5728 5723 5718 5714 5710 5706 5702 5698 5696 5694 5691 5688 5686
5856 5857 5855 5857 5858 5857 5853 5857 5854 5851 5847 5844 5842 5841 5836 5832 5826 5822 5818 5812 5807 5803 5795 5790 5786 5777 5770 5763 5757 5751 5745 5739 5734 5729 5724 5720 5715 5711 5706 5701 5696 5692 5687 5684 5680 5675 5671 5670 5671